Change the Weather History Date:

Sunday, November 4, 2012

  Actual Average (K3TH) Record (K3TH)
Temperature  
Mean Temperature 40 °F -  
Max Temperature 43 °F 44 °F 52 °F (1997)
Min Temperature 37 °F 31 °F 33 °F (1998)
Degree Days  
Heating Degree Days 25    
Moisture  
Dew Point 39 °F    
Average Humidity 100    
Maximum Humidity 100    
Minimum Humidity 100    
Precipitation  
Precipitation 0.22 in - - ()
Sea Level Pressure  
Sea Level Pressure 30.22 in    
Wind  
Wind Speed 5 mph (WSW)    
Max Wind Speed 10 mph    
Max Gust Speed 24 mph    
Visibility 1 miles    
Events Fog , Rain    
Averages and records for this station are not official NWS values.
T = Trace of Precipitation, MM = Missing Value Source: NWS Daily Summary

Daily Weather History Graph

Daily Weather History Graph

Search for Another Location

Airport or City:

Trip Planner

Search our weather history database for the weather conditions in past years. The results will help you decide how hot, cold, wet, or windy it might be!

Date:

Astronomy

Nov. 04, 2012 Rise Set
Actual Time 6:31 AM PST 4:20 PM PST
Civil Twilight 5:59 AM PST 4:52 PM PST
Nautical Twilight 5:22 AM PST 5:29 PM PST
Astronomical Twilight 4:46 AM PST 6:04 PM PST
Moon 8:59 PM PST (11/4) 11:22 AM PST (11/4)
Length of Visible Light 10h 53m
Length of Day
9h 48m
Waning Gibbous, 71% of the Moon is Illuminated
Nov 4
Waning Gibbous
Nov 6
Last Quarter
Nov 13
New
Nov 20
First Quarter
Nov 28
Full

Hourly Weather History & Observations

Time (PST) Temp. Windchill Dew Point Humidity Pressure Visibility Wind Dir Wind Speed Gust Speed Precip Events Conditions
12:16 AM 37.4 °F 33.8 °F 37.4 °F 100% 30.18 in 2.0 mi Variable 4.6 mph - 0.00 in Rain Light Rain
12:41 AM 37.4 °F 32.1 °F 37.4 °F 100% 30.19 in 9.0 mi Variable 6.9 mph 17.3 mph 0.01 in Rain Light Rain
12:53 AM 37.9 °F 33.5 °F 37.9 °F 100% 30.09 in 7.0 mi Variable 5.8 mph - 0.01 in Rain Light Rain
1:05 AM 37.4 °F 31.4 °F 37.4 °F 100% 30.19 in 1.8 mi West 8.1 mph - 0.00 in Rain Light Rain
1:13 AM 37.4 °F 32.8 °F 37.4 °F 100% 30.19 in 3.0 mi Variable 5.8 mph - 0.00 in Rain Light Rain
1:53 AM 37.9 °F 32.7 °F 37.9 °F 100% 30.10 in 2.5 mi Variable 6.9 mph - 0.00 in   Overcast
1:58 AM 37.4 °F 34.9 °F 37.4 °F 100% 30.20 in 1.2 mi Variable 3.5 mph - 0.01 in   Overcast
1:07 AM 37.4 °F 32.8 °F 37.4 °F 100% 30.21 in 0.8 mi Variable 5.8 mph - 0.01 in   Overcast
1:28 AM 37.4 °F 33.8 °F 37.4 °F 100% 30.21 in 0.2 mi Variable 4.6 mph - 0.01 in Fog , Rain Light Rain
1:45 AM 37.4 °F 33.8 °F 37.4 °F 100% 30.22 in 0.2 mi Variable 4.6 mph - 0.01 in Fog Fog
1:53 AM 37.9 °F 33.5 °F 37.9 °F 100% 30.12 in 0.2 mi Variable 5.8 mph 20.7 mph 0.01 in Fog Fog
2:14 AM 37.4 °F 32.8 °F 37.4 °F 100% 30.22 in 0.2 mi Variable 5.8 mph - 0.00 in Fog , Rain Light Rain
2:23 AM 37.4 °F 33.8 °F 37.4 °F 100% 30.22 in 0.8 mi Variable 4.6 mph - 0.00 in Rain Light Rain
2:53 AM 37.9 °F 33.5 °F 37.9 °F 100% 30.11 in 0.2 mi West 5.8 mph - 0.00 in Fog Fog
3:26 AM 37.4 °F 33.8 °F 37.4 °F 100% 30.23 in 0.5 mi Variable 4.6 mph - N/A Fog Fog
3:38 AM 37.4 °F 33.8 °F 37.4 °F 100% 30.23 in 0.2 mi Variable 4.6 mph - N/A Fog Fog
3:45 AM 37.4 °F 33.8 °F 37.4 °F 100% 30.24 in 0.5 mi Variable 4.6 mph - N/A Fog Fog
4:00 AM 37.4 °F 34.9 °F 37.4 °F 100% 30.24 in 0.2 mi Variable 3.5 mph - 0.00 in Fog , Rain Light Rain
4:21 AM 37.4 °F - 37.4 °F 100% 30.24 in 0.2 mi Calm Calm - 0.00 in Fog , Rain Light Rain
4:37 AM 37.4 °F 34.9 °F 37.4 °F 100% 30.25 in 0.5 mi Variable 3.5 mph - 0.01 in Fog , Rain Light Rain
4:53 AM 37.9 °F 35.5 °F 37.9 °F 100% 30.14 in 1.0 mi Variable 3.5 mph - 0.01 in Rain Light Rain
5:03 AM 37.4 °F 34.9 °F 37.4 °F 100% 30.25 in 0.8 mi Variable 3.5 mph - 0.00 in Rain Light Rain
5:32 AM 37.4 °F 34.9 °F 37.4 °F 100% 30.26 in 0.2 mi WNW 3.5 mph - 0.02 in Fog , Rain Light Rain
5:53 AM 37.9 °F 35.5 °F 37.9 °F 100% 30.16 in 0.2 mi WNW 3.5 mph - 0.05 in Fog , Rain Light Rain
6:53 AM 39.0 °F 35.7 °F 39.0 °F 100% 30.17 in 0.5 mi WSW 4.6 mph - 0.06 in Fog , Rain Light Rain
7:05 AM 39.2 °F 35.9 °F 39.2 °F 100% 30.30 in 0.2 mi WSW 4.6 mph - 0.01 in Fog , Rain Light Rain
7:12 AM 39.2 °F 35.9 °F 39.2 °F 100% 30.30 in 0.5 mi Variable 4.6 mph - 0.01 in Fog , Rain Light Rain
7:53 AM 39.0 °F 34.8 °F 39.0 °F 100% 30.21 in 0.2 mi Variable 5.8 mph - 0.01 in Fog , Rain Light Rain
8:53 AM 39.0 °F 36.8 °F 39.0 °F 100% 30.22 in 0.2 mi Variable 3.5 mph - 0.03 in Fog , Rain Light Rain
9:53 AM 39.9 °F 35.8 °F 39.9 °F 100% 30.23 in 0.2 mi Variable 5.8 mph - 0.01 in Fog , Rain Light Rain
10:22 AM 39.2 °F 35.9 °F 39.2 °F 100% 30.35 in 0.2 mi Variable 4.6 mph - 0.00 in Fog Fog
10:53 AM 39.9 °F 35.8 °F 39.9 °F 100% 30.24 in 0.2 mi WSW 5.8 mph - 0.00 in Fog Fog
11:53 AM 39.9 °F 35.1 °F 39.9 °F 100% 30.23 in 0.2 mi Variable 6.9 mph - 0.00 in Fog Fog
12:24 PM 39.2 °F 35.0 °F 39.2 °F 100% 30.35 in 0.2 mi Variable 5.8 mph - 0.01 in Fog , Rain Light Rain
12:53 PM 39.9 °F 35.1 °F 39.9 °F 100% 30.23 in 0.2 mi Variable 6.9 mph - 0.01 in Fog Fog
1:53 PM 39.9 °F 35.1 °F 39.9 °F 100% 30.23 in 0.2 mi WSW 6.9 mph - N/A Fog Fog
2:23 PM 39.2 °F 35.9 °F 39.2 °F 100% 30.36 in 0.2 mi Variable 4.6 mph - N/A Fog Fog
2:53 PM 39.9 °F 36.7 °F 39.9 °F 100% 30.25 in 0.2 mi Variable 4.6 mph - N/A Fog Fog
3:32 PM 39.2 °F 35.0 °F 39.2 °F 100% 30.37 in 0.2 mi Variable 5.8 mph - N/A Fog Fog
3:53 PM 41.0 °F 38.0 °F 41.0 °F 100% 30.25 in 0.2 mi Variable 4.6 mph - N/A Fog Fog
4:53 PM 41.0 °F 38.0 °F 41.0 °F 100% 30.25 in 0.2 mi Variable 4.6 mph - 0.01 in Fog Fog
5:53 PM 41.0 °F 34.7 °F 41.0 °F 100% 30.24 in 0.2 mi SW 10.4 mph 18.4 mph N/A Fog Fog
6:53 PM 41.0 °F 37.1 °F 41.0 °F 100% 30.23 in 0.2 mi Variable 5.8 mph - N/A Fog Fog
7:53 PM 42.1 °F 37.1 °F 42.1 °F 100% 30.22 in 0.2 mi SW 8.1 mph 21.9 mph N/A Fog Fog
8:53 PM 42.1 °F 37.1 °F 42.1 °F 100% 30.23 in 0.2 mi West 8.1 mph - 0.01 in Fog Fog
9:53 PM 43.0 °F 39.5 °F 43.0 °F 100% 30.21 in 0.2 mi Variable 5.8 mph - N/A Fog Fog
10:53 PM 43.0 °F 37.7 °F 43.0 °F 100% 30.19 in 0.2 mi WSW 9.2 mph 24.2 mph N/A Fog Fog